Location: CCZU
(31.6840°N, 119.9550°E)
Time: 11:42:47
(UTC+08:00)

Hubble Space Telescope - Pass Details

Date: 26 September 2022
Orbit: 530 x 534 km, 28.5° (Epoch: 28 November)

Event Time Altitude Azimuth Distance (km) Brightness Sun altitude
Rises 18:22:40 0° 242° (WSW) 2,648 5.5 -7.3°
Reaches altitude 10° 18:25:02 10° 234° (SW) 1,760 4.2 -7.8°
Maximum altitude 18:28:48 36° 167° (SSE) 839 1.6 -8.6°
Enters shadow 18:32:09 12° 102° (ESE) 1,621 2.5 -9.3°
